Left ArrowRight Arrow

46.40834, -105.84056

Hourly Observations for July 7, 2023

Temp ( °F °C ) Dew Point ( °F °C ) Humidity (%) Winds ( mph kmh ) Pressure ( in mb ) Visibility ( mi km ) Precip ( " mm )
12:53 am 00:53 Clear 63 17.2 52 11.1 67 67 SW 6 9 29.92 1013 10 16 0.00 0.00
1:53 am 01:53 Clear 63 17.2 52 11.1 67 67 W 7 11 29.92 1013 10 16 0.00 0.00
2:53 am 02:53 Clear 60 15.6 51 10.6 72 72 W 7 11 29.93 1013 10 16 0.00 0.00
3:53 am 03:53 Clear 57 13.9 50 10 77 77 W 5 7 29.92 1013 10 16 0.00 0.00
4:53 am 04:53 Clear 56 13.3 49 9.4 77 77 WNW 7 11 29.93 1014 10 16 0.00 0.00
5:53 am 05:53 Partly Cloudy 57 13.9 49 9.4 74 74 WNW 6 9 29.95 1014 10 16 0.00 0.00
6:53 am 06:53 Mostly Sunny 60 15.6 49 9.4 67 67 W 6 9 29.96 1015 10 16 0.00 0.00
7:53 am 07:53 Sunny 63 17.2 50 10 63 63 W 6 9 29.97 1015 10 16 0.00 0.00
8:53 am 08:53 Mostly Sunny 69 20.6 51 10.6 53 53 W 6 9 29.98 1015 10 16 0.00 0.00
9:53 am 09:53 Sunny 73 22.8 48 8.9 41 41 NE 6 9 29.98 1015 10 16 0.00 0.00
10:53 am 10:53 Sunny 75 23.9 49 9.4 40 40 ENE 7 11 29.99 1016 10 16 0.00 0.00
11:53 am 11:53 Sunny 77 25 50 10 39 39 ENE 12 19 30.00 1016 10 16 0.00 0.00
12:53 pm 12:53 Sunny 78 25.6 48 8.9 35 35 ENE 10 17 30.00 1016 10 16 0.00 0.00
1:53 pm 13:53 Sunny 79 26.1 48 8.9 34 34 ENE 14 22 29.99 1016 10 16 0.00 0.00
2:53 pm 14:53 Mostly Sunny 78 25.6 47 8.3 33 33 VRB 3 6 29.99 1016 10 16 0.00 0.00
3:28 pm 15:28 Cloudy with Nearby Thunderstorms 77 25 48 8.9 36 36 NE 12 19 29.88 1012 10 16 0.00 0.00
3:53 pm 15:53 Partly Cloudy with Nearby Thunderstorms 77 25 47 8.3 35 35 NE 9 15 29.99 1016 10 16 0.00 0.00
4:23 pm 16:23 Sunny with Thunderstorms 76 24.4 47 8.3 36 36 ESE 8 13 29.89 1012 10 16 0.00 0.00
4:53 pm 16:53 Mostly Cloudy with Thunderstorms 76 24.4 46 7.8 35 35 VRB 3 6 30.00 1016 10 16 0.00 0.00
5:08 pm 17:08 Cloudy with Light Rain 74 23.3 50 10 43 43 SW 16 26 29.90 1012 10 16 0.01 0.13
5:53 pm 17:53 Mostly Sunny 78 25.6 47 8.3 33 33 ENE 7 11 29.97 1015 10 16 0.01 0.13
6:53 pm 18:53 Sunny 77 25 45 7.2 32 32 ENE 9 15 29.97 1015 10 16 0.00 0.00
7:53 pm 19:53 Sunny 74 23.3 47 8.3 38 38 ENE 8 13 29.98 1015 10 16 0.00 0.00
8:53 pm 20:53 Sunny 70 21.1 46 7.8 42 42 ENE 7 11 29.98 1015 10 16 0.00 0.00
9:53 pm 21:53 Clear 68 20 46 7.8 45 45 E 7 11 30.00 1016 10 16 0.00 0.00
10:53 pm 22:53 Clear 67 19.4 43 6.1 42 42 E 6 9 30.01 1016 10 16 0.00 0.00
11:53 pm 23:53 Clear 65 18.3 44 6.7 47 47 ENE 6 9 30.01 1016 10 16 0.00 0.00

Powered by Vaisala Xweather